[[{"header":{"parameterUnit":"m.s-1","parameterCategory":1,"la1":30.2991,"la2":30.254,"lo1":-89.0895,"lo2":-89.0444,"dy":0.0017,"dx":0.0017,"nx":28,"ny":28,"refTime":"2025-08-08T03:00:00:Z","depth":0,"parameterNumber":2,"parameterNumberName":"U-component_of_WINDS"},"data":[0,0,0,0,0,0,0,0,0,0,0,0,0,0,0,0,0,0,0,0,0,0,0,0,0,0,0,0,0,0,0,0,0,0,0,0,0,0,0,0,0,0,0,0,0,0,0,0,0,0,0,0,0,0,0,0,0,0,-3.7218,-3.7219,0,-3.733,-3.7331,-3.7333,-3.7273,-3.727,-3.7267,-3.7264,-3.7379,-3.7385,-3.739,0,0,0,0,0,0,0,0,0,0,0,0,0,-3.6953,-3.6958,-3.7218,-3.722,-3.7221,-3.733,-3.7331,-3.7333,-3.7274,-3.727,-3.7266,-3.7263,-3.7377,-3.7384,-3.7391,0,0,0,0,0,0,0,0,0,0,0,0,0,-3.7067,-3.696,-3.7218,-3.7205,-3.7204,-3.733,-3.7331,-3.7333,-3.7274,-3.727,-3.7265,-3.7261,-3.7375,-3.7383,-3.7392,-3.7537,0,0,-3.7419,-3.7423,0,0,0,0,0,0,0,0,-3.706,-3.7077,-3.7205,-3.7206,-3.7206,-3.7283,-3.728,-3.7401,-3.7276,-3.7248,-3.7264,-3.7259,-3.7351,-3.7361,-3.7392,-3.7542,-3.7547,-3.742,-3.7425,-3.7429,-3.7431,0,0,0,0,0,0,0,-3.7053,-3.7071,-3.7262,-3.7207,-3.7208,-3.7193,-3.7204,-3.7303,-3.7323,-3.725,-3.7246,-3.726,-3.735,-3.7384,-3.7394,-3.7549,-3.7419,-3.7427,-3.7433,-3.7436,-3.7822,-3.7826,0,0,0,0,0,0,-3.7045,-3.7065,-3.7259,-3.7266,-3.712,-3.7201,-3.7214,-3.7263,-3.7322,-3.7327,-3.7264,-3.7257,-3.7371,-3.7384,-3.7398,-3.757,-3.7429,-3.7437,-3.7442,-3.7817,-3.7823,-3.7828,0,0,0,0,0,0,-3.704,-3.7063,-3.7254,-3.7164,-3.7188,-3.7211,-3.7266,-3.7267,-3.7301,-3.7332,-3.7336,-3.7294,-3.7368,-3.7386,-3.7502,-3.7573,-3.7441,-3.7449,-3.7811,-3.7818,-3.7825,-3.7916,0,0,0,0,0,0,-3.7033,-3.7062,-3.7117,-3.7166,-3.7193,-3.7357,-3.7271,-3.7273,-3.7316,-3.7308,-3.7362,-3.7367,-3.7366,-3.749,-3.7511,-3.7583,-3.7456,-3.7804,-3.7814,-3.7823,-3.7907,-3.7926,-3.7942,0,0,0,0,0,-3.7023,-3.7138,-3.712,-3.7144,-3.7262,-3.7361,-3.7376,-3.7373,-3.7322,-3.7378,-3.7398,-3.7365,-3.7563,-3.7502,-3.7526,-3.7601,-3.78,-3.7811,-3.7822,-3.7899,-3.7922,-3.7942,0,0,0,0,0,0,-3.7097,-3.7145,-3.7125,-3.7259,-3.7307,-3.7351,-3.7421,-3.7398,-3.746,-3.745,-3.7443,-3.7456,-3.7577,-3.7601,-3.7533,-3.7744,-3.7673,-3.769,-3.7724,-3.7746,-3.7763,-3.7754,-3.7463,0,0,0,0,0,-3.7129,-3.7206,-3.7243,-3.7358,-3.7383,-3.7398,-3.7441,-3.7434,-3.7483,-3.7503,-3.7531,-3.758,-3.7653,-3.7701,-3.777,-3.7911,-3.7921,-3.7975,-3.7992,-3.8006,-3.802,-3.8095,-3.8119,-3.7865,-3.7865,-3.7864,0,0,-3.7196,-3.7231,-3.728,-3.7374,-3.7409,-3.7488,-3.7415,-3.7502,-3.756,-3.7516,-3.7627,-3.765,-3.7704,-3.7833,-3.7891,-3.7857,-3.8093,-3.8021,-3.8032,-3.8038,-3.8109,-3.8133,-3.8155,-3.7872,-3.7871,-3.787,0,0,-3.7357,-3.7393,-3.7491,-3.7529,-3.7584,-3.7593,-3.7617,-3.7665,-3.7679,-3.779,-3.7758,-3.7828,-3.7954,-3.7993,-3.8029,-3.8206,-3.8177,-3.8229,-3.832,-3.8393,-3.8413,-3.8431,-3.8493,-3.8515,-3.8243,-3.8243,-3.8243,0,-3.7433,-3.7551,-3.7545,-3.7634,-3.7676,-3.764,-3.7739,-3.7776,-3.7851,-3.7881,-3.7841,-3.7998,-3.8032,-3.8169,-3.8212,-3.8243,-3.8269,-3.8222,-3.8411,-3.8429,-3.8445,-3.8504,-3.8527,-3.8249,-3.8248,-3.8247,-3.8247,0,-3.7641,-3.7723,-3.7796,-3.7869,-3.7919,-3.8013,-3.8022,-3.8073,-3.8062,-3.8076,-3.819,-3.8229,-3.8305,-3.8337,-3.8328,-3.8473,-3.845,-3.8411,-3.8339,-3.8475,-3.853,-3.8553,-3.8257,-3.8255,-3.8253,-3.8252,0,0,-3.7851,-3.7919,-3.7946,-3.7978,-3.8037,-3.81,-3.8192,-3.8266,-3.831,-3.8363,-3.844,-3.8547,-3.8511,-3.8553,-3.8547,-3.8612,-3.8748,-3.8565,-3.8566,-3.8597,-3.8909,-3.8937,-3.8963,-3.873,-3.8734,-3.8738,-3.8904,0,-3.8015,-3.8176,-3.8174,-3.8323,-3.8398,-3.8365,-3.8445,-3.8489,-3.8504,-3.857,-3.8587,-3.8663,-3.8611,-3.8635,-3.8698,-3.8718,-3.881,-3.8706,-3.8801,-3.8804,-3.8787,-3.8992,-3.9022,-3.9178,-3.8926,-3.893,-3.8932,0,-3.8228,-3.8288,-3.8444,-3.849,-3.8522,-3.8594,-3.8661,-3.8725,-3.8774,-3.8781,-3.8827,-3.8812,-3.8905,-3.8832,-3.8961,-3.889,-3.8928,-3.8944,-3.895,-3.8958,-3.8875,-3.9004,-3.9227,-3.925,-3.8966,-3.8964,-3.8961,0,-3.8364,-3.8484,-3.8592,-3.8621,-3.8678,-3.873,-3.8756,-3.8801,-3.8845,-3.8904,-3.8932,-3.9002,-3.904,-3.9094,-3.9097,-3.9044,-3.9226,-3.9154,-3.9234,-3.9234,-3.9272,-3.927,-3.9504,-3.93,-3.93,-3.9299,-3.9299,0,-3.8547,-3.8644,-3.8654,-3.8721,-3.8828,-3.8825,-3.8931,-3.8952,-3.8993,-3.9063,-3.9039,-3.9105,-3.9106,-3.9174,-3.9178,-3.9283,-3.9301,-3.9308,-3.9308,-3.931,-3.9308,-3.9334,-3.9322,-3.9305,-3.9304,-3.9303,-3.9302,0,-3.8717,-3.8728,-3.8844,-3.8888,-3.8901,-3.8978,-3.9016,-3.908,-3.9093,-3.9182,-3.9203,-3.9223,-3.9302,-3.9311,-3.9403,-3.9405,-3.9532,-3.952,-3.9515,-3.9512,-3.9591,-3.9583,-3.9849,-3.9883,-3.9658,-3.966,-3.9662,0,-3.8832,-3.8906,-3.8958,-3.9003,-3.9031,-3.9105,-3.9149,-3.9149,-3.9197,-3.9258,-3.9314,-3.939,-3.9451,-3.9578,-3.9601,-3.9672,-3.9661,-3.9749,-3.9671,-3.9671,-3.9661,-3.9656,-3.9663,-3.9764,-3.9766,-3.9768,-3.977,0,-3.9035,-3.9037,-3.9102,-3.917,-3.9224,-3.9277,-3.9327,-3.9365,-3.9371,-3.9426,-3.9505,-3.9553,-3.9646,-3.9722,-3.9791,-3.9818,-3.9795,-3.9794,-3.9816,-3.9818,-3.9811,-3.9815,-3.9554,-3.9788,-3.9786,-3.9785,-3.9784,-3.9783,-3.918,-3.9244,-3.929,-3.9363,-3.9401,-3.9448,-3.9509,-3.953,-3.9596,-3.9671,-3.9667,-3.9755,-3.9802,-3.9893,-3.9925,-3.9993,-3.9964,-3.9996,-4.0004,-4.0012,-4.0019,-3.9802,-4.0006,-4.0006,-4.0005,-4.0005,-4.0004,0,-3.9381,-3.9409,-3.9476,-3.9547,-3.9604,-3.9578,-3.9631,-3.9682,-3.9759,-3.9805,-3.9865,-3.9956,-4.003,-4.0059,-4.013,-4.018,-4.0171,-4.0199,-4.0194,-4.0201,-4.0042,-4.0015,-4.0204,-4.0204,-4.0204,-4.0204,-4.0204,-4.0204,-3.9492,-3.9597,-3.9604,-3.9728,-3.9755,-3.984,-3.9873,-3.9916,-3.9952,-4.0055,-4.0116,-4.0134,-4.0173,-4.0248,-4.0314,-4.032,-4.0347,-4.0379,-4.0381,-4.0232,-4.0212,-4.0193,-4.0167,-4.0385,-4.0386,-4.0534,-4.0536,-4.0537]},{"header":{"parameterUnit":"m.s-1","parameterCategory":1,"la1":30.2991,"la2":30.254,"lo1":-89.0895,"lo2":-89.0444,"dy":0.0017,"dx":0.0017,"nx":28,"ny":28,"refTime":"2025-08-08T03:00:00:Z","depth":0,"parameterNumber":3,"parameterNumberName":"V-component_of_WINDS"},"data":[0,0,0,0,0,0,0,0,0,0,0,0,0,0,0,0,0,0,0,0,0,0,0,0,0,0,0,0,0,0,0,0,0,0,0,0,0,0,0,0,0,0,0,0,0,0,0,0,0,0,0,0,0,0,0,0,0,0,1.7832,1.7833,0,1.7876,1.7877,1.7877,1.7863,1.7863,1.7862,1.7861,1.7902,1.7904,1.7906,0,0,0,0,0,0,0,0,0,0,0,0,0,1.7734,1.7736,1.7832,1.7833,1.7833,1.7876,1.7877,1.7877,1.7864,1.7863,1.7861,1.786,1.7902,1.7904,1.7906,0,0,0,0,0,0,0,0,0,0,0,0,0,1.7777,1.7737,1.7832,1.7832,1.7832,1.7876,1.7877,1.7877,1.7864,1.7862,1.7861,1.786,1.7901,1.7904,1.7907,1.7952,0,0,1.7916,1.7917,0,0,0,0,0,0,0,0,1.7775,1.7781,1.7831,1.7832,1.7832,1.7863,1.7857,1.7902,1.7864,1.7852,1.7861,1.7859,1.789,1.7894,1.7905,1.7954,1.7956,1.7916,1.7918,1.7919,1.792,0,0,0,0,0,0,0,1.7772,1.7779,1.7849,1.7832,1.7833,1.7829,1.7833,1.7866,1.7878,1.7853,1.7852,1.7857,1.789,1.7902,1.7906,1.7957,1.7916,1.7919,1.792,1.7922,1.8046,1.8047,0,0,0,0,0,0,1.7769,1.7777,1.7848,1.7851,1.78,1.7832,1.7837,1.7854,1.7878,1.788,1.7859,1.7857,1.7898,1.7903,1.7907,1.7962,1.7919,1.7922,1.7924,1.8044,1.8046,1.8048,0,0,0,0,0,0,1.7767,1.7776,1.7846,1.7814,1.7822,1.7835,1.7855,1.7856,1.7868,1.7882,1.7884,1.7869,1.7897,1.7903,1.7942,1.7963,1.7923,1.7926,1.8043,1.8045,1.8047,1.8072,0,0,0,0,0,0,1.7764,1.7775,1.7793,1.7814,1.7824,1.7881,1.7856,1.7858,1.7874,1.7871,1.7892,1.7894,1.7896,1.7937,1.7945,1.7967,1.7928,1.8041,1.8044,1.8046,1.8069,1.8075,1.808,0,0,0,0,0,1.7761,1.7797,1.7794,1.7802,1.7847,1.7882,1.7887,1.789,1.7875,1.7893,1.7902,1.7894,1.796,1.7941,1.7949,1.7973,1.8039,1.8043,1.8046,1.8067,1.8074,1.808,0,0,0,0,0,0,1.7777,1.78,1.7796,1.7841,1.786,1.7879,1.7902,1.7897,1.792,1.7916,1.7918,1.7923,1.7962,1.7971,1.795,1.8018,1.7997,1.8003,1.8011,1.8017,1.8022,1.8019,1.7931,0,0,0,0,0,1.7786,1.7813,1.7832,1.7869,1.7879,1.7889,1.7904,1.7905,1.7924,1.7931,1.7943,1.7961,1.7986,1.8002,1.8026,1.8071,1.8075,1.8091,1.8097,1.8101,1.8105,1.8129,1.8137,1.8059,1.8059,1.8059,0,0,1.7804,1.782,1.7837,1.7873,1.7888,1.7915,1.7896,1.7925,1.7945,1.7935,1.7973,1.7982,1.8002,1.8044,1.8063,1.8053,1.8127,1.8105,1.8109,1.811,1.8134,1.8141,1.8147,1.8062,1.8061,1.8061,0,0,1.7851,1.7867,1.79,1.7915,1.7938,1.7945,1.7953,1.7974,1.798,1.8018,1.8011,1.8035,1.8078,1.8092,1.8105,1.816,1.8152,1.8168,1.8194,1.8218,1.8224,1.823,1.8248,1.8255,1.8172,1.8172,1.8172,0,1.7871,1.7913,1.7917,1.7948,1.7964,1.7958,1.7991,1.8005,1.8034,1.8045,1.8034,1.8088,1.8101,1.8146,1.816,1.8171,1.818,1.8165,1.8223,1.8229,1.8234,1.8252,1.8259,1.8174,1.8174,1.8173,1.8173,0,1.7935,1.7965,1.7989,1.8018,1.8037,1.8068,1.8077,1.8095,1.8095,1.8102,1.8141,1.8157,1.8184,1.8195,1.8194,1.824,1.8233,1.8223,1.8201,1.8243,1.8259,1.8266,1.8176,1.8175,1.8175,1.8175,0,0,1.7992,1.8025,1.8034,1.8047,1.8073,1.8095,1.8126,1.8154,1.8169,1.819,1.8216,1.8253,1.8244,1.8259,1.826,1.8281,1.8323,1.8268,1.8269,1.8277,1.8374,1.8381,1.8389,1.8319,1.832,1.8321,1.8372,0,1.8041,1.8097,1.8103,1.8153,1.818,1.8175,1.8203,1.8221,1.8229,1.8253,1.8262,1.8288,1.8274,1.8283,1.8304,1.8313,1.8342,1.831,1.8342,1.8343,1.8336,1.8398,1.8405,1.8452,1.8379,1.838,1.8381,0,1.8105,1.8129,1.8182,1.8204,1.8216,1.824,1.8266,1.8289,1.831,1.8315,1.8332,1.8331,1.8363,1.8342,1.8385,1.8363,1.8377,1.8384,1.8385,1.8387,1.8363,1.84,1.8467,1.8474,1.8391,1.839,1.839,0,1.814,1.8185,1.8223,1.8235,1.8262,1.828,1.8292,1.8311,1.8328,1.835,1.8361,1.8387,1.84,1.842,1.8425,1.841,1.8469,1.8448,1.8472,1.8472,1.8484,1.8483,1.8553,1.8495,1.8495,1.8494,1.8494,0,1.8193,1.8226,1.824,1.8263,1.8299,1.8305,1.834,1.8351,1.8369,1.8393,1.8391,1.8414,1.842,1.8444,1.8449,1.8484,1.849,1.8494,1.8495,1.8494,1.8493,1.8502,1.8498,1.8496,1.8496,1.8496,1.8495,0,1.8238,1.8249,1.8289,1.8312,1.8319,1.8345,1.8364,1.8386,1.8395,1.8426,1.8433,1.8447,1.8475,1.8483,1.8516,1.8519,1.856,1.8558,1.8554,1.8553,1.8577,1.8574,1.8653,1.8664,1.86,1.8601,1.8601,0,1.827,1.8295,1.8322,1.8339,1.8352,1.8379,1.8396,1.8403,1.8421,1.8447,1.8466,1.8494,1.8517,1.8562,1.8574,1.86,1.8598,1.8624,1.8601,1.86,1.8597,1.8595,1.8597,1.8628,1.8628,1.8629,1.8629,0,1.8327,1.8331,1.8357,1.8384,1.8405,1.8427,1.8448,1.8462,1.8472,1.8492,1.8522,1.8539,1.8575,1.8602,1.8629,1.864,1.8636,1.8637,1.8643,1.8642,1.8638,1.8639,1.8564,1.8634,1.8634,1.8633,1.8633,1.8633,1.8366,1.8388,1.841,1.8439,1.8456,1.8475,1.8497,1.8509,1.8535,1.8564,1.8567,1.8599,1.8619,1.8654,1.8667,1.8692,1.8684,1.8694,1.8696,1.8698,1.87,1.8635,1.8697,1.8697,1.8696,1.8696,1.8696,0,1.8421,1.8436,1.8462,1.8492,1.8515,1.8511,1.8534,1.8553,1.8581,1.8601,1.8624,1.8658,1.8685,1.87,1.8727,1.8744,1.8743,1.8751,1.8749,1.8751,1.8706,1.8697,1.8751,1.8751,1.8751,1.8751,1.8751,1.8751,1.8453,1.849,1.8497,1.8543,1.8557,1.8589,1.8602,1.8621,1.8637,1.8675,1.8698,1.8708,1.8726,1.8754,1.8779,1.8783,1.8792,1.8801,1.8803,1.876,1.8755,1.8749,1.8741,1.8803,1.8803,1.8847,1.8847,1.8848]}]]